Weather History for McCook, NE

Change the Weather History Date:

Thursday, July 10, 2014

  Actual Average Record
Temperature  
Mean Temperature 77 °F 76 °F  
Max Temperature 90 °F 90 °F 109 °F (1954)
Min Temperature 64 °F 62 °F 49 °F (1924)
Cooling Degree Days 12    
Growing Degree Days 26 (Base 50)    
Moisture  
Dew Point 64 °F    
Average Humidity 78    
Maximum Humidity 97    
Minimum Humidity 45    
Precipitation  
Precipitation 0.32 in 0.12 in 1.15 in (1977)
Month to date precipitation 0.97 1.07  
Year to date precipitation 13.98 12.39  
Sea Level Pressure  
Sea Level Pressure 29.93 in    
Wind  
Wind Speed 16 mph (SE)    
Max Wind Speed 26 mph    
Max Gust Speed 36 mph    
Visibility 8 miles    
Events Rain , Thunderstorm    
T = Trace of Precipitation, MM = Missing Value Source: NWS Daily Summary

Daily Weather History Graph

Daily Weather History Graph

Search for Another Location

Airport:

Trip Planner

Search our weather history database for the weather conditions in past years. The results will help you decide how hot, cold, wet, or windy it might be!

Date:

Astronomy

Jul. 10, 2014 Rise Set
Actual Time 6:21 AM CDT 9:13 PM CDT
Civil Twilight 5:49 AM CDT 9:45 PM CDT
Nautical Twilight 5:08 AM CDT 10:26 PM CDT
Astronomical Twilight 4:21 AM CDT 11:12 PM CDT
Moon 7:27 PM CDT (7/10) 4:35 AM CDT (7/10)
Length of Visible Light 15h 55m
Length of Day
14h 51m
Waxing Gibbous, 95% of the Moon is Illuminated
Jul 10
Waxing Gibbous
Jul 12
Full
Jul 18
Last Quarter
Jul 26
New
Aug 3
First Quarter

Hourly Weather History & Observations

Time (CDT) Temp. Heat Index Dew Point Humidity Pressure Visibility Wind Dir Wind Speed Gust Speed Precip Events Conditions
12:00 AM 78.1 °F - 55.9 °F 46% 29.95 in 10.0 mi ESE 17.3 mph 26.5 mph N/A Thunderstorm Partly Cloudy
12:28 AM 75.0 °F - 57.9 °F 55% 29.96 in 9.0 mi Variable 6.9 mph 20.7 mph 0.00 in Rain , Thunderstorm Light Thunderstorms and Rain
12:39 AM 69.1 °F - 60.1 °F 73% 29.98 in 1.8 mi Variable 6.9 mph - 0.10 in Rain , Thunderstorm Heavy Thunderstorms and Rain
12:53 AM 68.0 °F - 61.0 °F 78% 29.94 in 3.0 mi Variable 5.8 mph - 0.17 in Rain , Thunderstorm Thunderstorms and Rain
1:00 AM 64.9 °F - 62.1 °F 90% 30.03 in 2.5 mi South 18.4 mph - 0.06 in Rain , Thunderstorm Heavy Thunderstorms and Rain
1:09 AM 64.9 °F - 64.0 °F 97% 29.99 in 1.5 mi SE 24.2 mph 32.2 mph 0.15 in Rain , Thunderstorm Heavy Thunderstorms and Rain
1:14 AM 64.9 °F - 64.0 °F 97% 29.97 in 1.5 mi SE 25.3 mph 32.2 mph 0.20 in Rain , Thunderstorm Heavy Thunderstorms and Rain
1:21 AM 64.9 °F - 63.0 °F 93% 29.96 in 1.5 mi ESE 26.5 mph 35.7 mph 0.30 in Rain , Thunderstorm Heavy Rain
1:27 AM 64.9 °F - 63.0 °F 93% 29.98 in 2.0 mi ESE 23.0 mph 35.7 mph 0.32 in Rain , Thunderstorm Rain
1:35 AM 64.9 °F - 64.0 °F 97% 29.99 in 8.0 mi East 19.6 mph 29.9 mph 0.32 in Rain Light Rain
1:53 AM 64.9 °F - 63.0 °F 93% 29.92 in 10.0 mi East 17.3 mph - 0.32 in   Scattered Clouds
2:17 AM 64.9 °F - 63.0 °F 93% 30.02 in 10.0 mi East 13.8 mph 21.9 mph N/A   Mostly Cloudy
2:31 AM 64.9 °F - 63.0 °F 93% 30.01 in 10.0 mi East 15.0 mph - N/A   Overcast
2:53 AM 64.4 °F - 62.6 °F 94% 29.99 in 9.0 mi East 15.0 mph - N/A   Mostly Cloudy
3:39 AM 64.9 °F - 63.0 °F 93% 29.98 in 8.0 mi East 17.3 mph - N/A   Mostly Cloudy
3:53 AM 64.9 °F - 62.1 °F 90% 29.90 in 8.0 mi East 17.3 mph 25.3 mph N/A   Overcast
4:11 AM 64.0 °F - 62.1 °F 93% 29.98 in 8.0 mi East 18.4 mph 28.8 mph N/A   Overcast
4:30 AM 64.0 °F - 62.1 °F 93% 29.99 in 9.0 mi East 17.3 mph 27.6 mph N/A   Overcast
4:53 AM 64.4 °F - 62.6 °F 94% 29.99 in 9.0 mi ESE 18.4 mph - N/A   Overcast
5:03 AM 64.4 °F - 62.6 °F 94% 29.99 in 8.0 mi ESE 19.6 mph 26.5 mph N/A   Overcast
5:53 AM 64.9 °F - 62.1 °F 90% 29.90 in 8.0 mi SE 13.8 mph 23.0 mph N/A   Overcast
6:49 AM 64.4 °F - 62.6 °F 94% 29.98 in 8.0 mi South 13.8 mph - N/A   Mostly Cloudy
6:53 AM 64.9 °F - 63.0 °F 93% 29.91 in 9.0 mi South 15.0 mph 21.9 mph N/A   Mostly Cloudy
7:09 AM 64.9 °F - 63.0 °F 93% 29.98 in 10.0 mi South 9.2 mph - N/A   Overcast
7:53 AM 66.2 °F - 62.6 °F 88% 29.99 in 10.0 mi SSW 12.7 mph 28.8 mph N/A   Mostly Cloudy
8:02 AM 68.0 °F - 63.0 °F 84% 29.99 in 10.0 mi SSW 16.1 mph 20.7 mph N/A   Scattered Clouds
8:53 AM 71.1 °F - 63.0 °F 75% 29.93 in 10.0 mi SSW 17.3 mph 23.0 mph N/A   Clear
9:53 AM 75.0 °F - 64.0 °F 69% 29.91 in 10.0 mi SSW 18.4 mph 25.3 mph N/A   Clear
11:53 AM 82.0 °F 84.1 °F 66.0 °F 58% 29.89 in - South 16.1 mph - N/A   Clear
12:53 PM 84.0 °F 86.5 °F 66.9 °F 56% 29.88 in 10.0 mi South 16.1 mph - N/A   Unknown
1:53 PM 87.1 °F 89.2 °F 66.0 °F 49% 29.86 in 10.0 mi North - - N/A   Clear
2:53 PM 88.0 °F 90.7 °F 66.9 °F 49% 29.84 in 10.0 mi South 13.8 mph 25.3 mph N/A   Clear
3:53 PM 89.1 °F 91.0 °F 64.9 °F 45% 29.83 in 10.0 mi SSE 19.6 mph 24.2 mph N/A   Clear
4:53 PM 89.1 °F 91.3 °F 66.0 °F 46% 29.81 in 10.0 mi SSE 17.3 mph - N/A   Clear
5:53 PM 89.1 °F 91.0 °F 64.9 °F 45% 29.80 in 10.0 mi SSE 12.7 mph 23.0 mph N/A   Clear
6:53 PM 88.0 °F 90.3 °F 66.0 °F 48% 29.79 in 10.0 mi SSE 11.5 mph 20.7 mph N/A   Clear
7:53 PM 84.9 °F 87.1 °F 66.0 °F 53% 29.80 in 10.0 mi SE 15.0 mph - N/A   Clear
8:53 PM 81.0 °F 84.1 °F 69.1 °F 67% 29.82 in 10.0 mi ESE 13.8 mph - N/A   Clear
9:53 PM 78.1 °F - 69.1 °F 74% 29.83 in 10.0 mi ESE 11.5 mph - N/A   Clear
10:53 PM 75.9 °F - 69.1 °F 79% 29.94 in 10.0 mi SE 12.7 mph - N/A   Clear
11:53 PM 73.9 °F - 69.1 °F 85% 29.86 in 10.0 mi SE 12.7 mph - N/A   Clear